Tracking 30696 objects as of 15-Jun-2025
HD Live streaming from Space Station
objects crossing your sky now

STARLINK-5914

Track STARLINK-5914 now!
10-day predictions
STARLINK-5914 is classified as:


NORAD ID: 55941
Int'l Code: 2023-037AD
Perigee: 576.8 km
Apogee: 581.6 km
Inclination: 70.0 °
Period: 96.1 minutes
Semi major axis: 6950 km
RCS: Unknown
Launch date: March 17, 2023
Source: United States (US)
Launch site: AIR FORCE WESTERN TEST RANGE (AFWTR)
Your satellite tracking list
Your tracking list is empty




NASA's NSSDC Master Catalog

Two Line Element Set (TLE):
1 55941U 23037AD  25165.62875912  .00000770  00000-0  72312-4 0  9991
2 55941  69.9988 240.4747 0003499 269.2637  90.8121 14.98333290123822
Source of the keplerian elements: AFSPC